sat.trackr.live / text

‹ back to catalog

GAOFEN DUOMO (GFDM)

NORAD 45856 · 2020-042A

PAYLOAD ACTIVE UNKNOWN

§ Identity

Operator
Country
PRC
Launch date
2020-07-03
Launch site
TAISC
Launch vehicle
Mass (kg)
RCS (m²)

External: N2YO · Heavens-Above · Gunter

§ Orbital elements

Epoch: 2026-09-20T04:43:29.973216Z

Period
97.50 min
Inclination
97.7647°
Eccentricity
0.0012118
Mean motion
14.76867973 rev/d
Perigee alt
630.7 km
Apogee alt
647.7 km
Semi-major
7,017.4 km
B*
9.2724e-5
RAAN
319.5718°
Arg perigee
123.2797°
Mean anomaly
236.9576°
Rev number
33,503

§ Raw data

GAOFEN DUOMO (GFDM)1 45856U 20042A   26263.19687469  .00000603  00000+0  92724-4 0  99912 45856  97.7647 319.5718 0012118 123.2797 236.9576 14.76867973335038

JSON: /api/v1/satellites/45856 · /tle

For live sub-satellite position, see the globe view (requires WebGL).

§ Visibility from observer

Set your observer location to see the next 7 days of passes ≥ 10°. The values pass through the URL so the page stays shareable.

No JS? Fill the form by hand. The geolocation button needs JavaScript.

§ Radio — SatNOGS DB

ModeDescriptionDownlinkUplink
FM S-band telemetry 2.283 GHz

1 transmitter · refreshed weekly from db.satnogs.org